User: anonymous   Login
Location: Plymouth
(43.7570°N, 71.6890°W)
Time: 11:56:32
(UTC-04:00)
Language:

Cosmos 2016 Rocket - Orbit

View from above orbital plane
View from above orbital plane
View from above satellite
View from above satellite

Ground track
Ground track

The orbit data is extracted from the following two-line orbital elements,

1 19922U 89028B   15116.48145829  .00000028  00000-0  12848-4 0  9992
2 19922 082.9564 287.3795 0035172 278.2298 140.2100 13.77145279309507
Epoch (UTC): 26 April 2015 11:33:17
Eccentricity: 0.0035172
inclination: 82.9564°
perigee height: 948 km
apogee height: 1000 km
right ascension of ascending node: 287.3795°
argument of perigee: 278.2298°
revolutions per day: 13.77145279
mean anomaly at epoch: 140.2100°
orbit number at epoch: 30950

The dashed part of the orbit path shows where the satellite is in the earth's shadow,  

DLR